| time (UTC) | temp C | wind direction | speed KPH | gust KPH | rain 1hr cm | rain 24hr cm | rain mn cm | humidity % | barometer mb |
| 20260510083010 | 10 | 134 | 0.0 | 0.0 | 0.00 | 0.30 | 0.00 | 97 | 1013.1 |
| 20260510081535 | 10 | 134 | 0.0 | 0.0 | 0.00 | 0.30 | 0.00 | 97 | 1013.0 |
| 20260510074517 | 10 | 134 | 0.0 | 0.0 | 0.00 | 0.30 | 0.00 | 97 | 1012.5 |
| 20260510073046 | 10 | 134 | 0.0 | 0.0 | 0.00 | 0.30 | 0.00 | 96 | 1012.3 |
| 20260510071507 | 10 | 134 | 0.0 | 0.0 | 0.00 | 0.30 | 0.00 | 97 | 1012.0 |
| 20260510070034 | 10 | 134 | 0.0 | 0.0 | 0.00 | 0.30 | 0.00 | 96 | 1012.1 |
| 20260510064602 | 11 | 134 | 0.0 | 0.0 | 0.00 | 0.30 | 0.00 | 96 | 1012.0 |
| 20260510063024 | 11 | 134 | 0.0 | 0.0 | 0.00 | 0.30 | 0.00 | 96 | 1011.9 |
| 20260510061548 | 11 | 134 | 0.0 | 0.0 | 0.00 | 0.30 | 0.00 | 96 | 1012.0 |
| 20260510060020 | 11 | 134 | 0.0 | 0.0 | 0.00 | 0.30 | 0.00 | 96 | 1011.9 |
| 20260510054554 | 11 | 134 | 0.0 | 0.0 | 0.00 | 0.30 | 0.00 | 95 | 1012.1 |
| 20260510053013 | 12 | 134 | 0.0 | 0.0 | 0.00 | 0.30 | 0.00 | 95 | 1012.2 |
| 20260510051541 | 12 | 134 | 0.0 | 0.0 | 0.00 | 0.30 | 0.00 | 94 | 1012.0 |
| 20260510050106 | 12 | 134 | 0.0 | 0.0 | 0.00 | 0.30 | 0.00 | 94 | 1012.1 |
| 20260510044523 | 12 | 134 | 0.0 | 0.0 | 0.00 | 0.30 | 0.00 | 94 | 1012.1 |
| 20260510043051 | 13 | 134 | 0.0 | 0.0 | 0.00 | 0.30 | 0.00 | 93 | 1012.1 |
| 20260510041515 | 13 | 134 | 0.0 | 0.0 | 0.00 | 0.30 | 0.00 | 92 | 1012.1 |
| 20260510040042 | 13 | 134 | 0.0 | 0.0 | 0.00 | 0.30 | 0.30 | 91 | 1012.0 |
| 20260510034507 | 14 | 134 | 0.0 | 0.0 | 0.00 | 0.30 | 0.30 | 89 | 1011.9 |
| 20260510033024 | 15 | 134 | 0.0 | 0.0 | 0.00 | 0.30 | 0.30 | 88 | 1011.9 |
| 20260510031606 | 15 | 134 | 0.0 | 0.0 | 0.00 | 0.30 | 0.30 | 87 | 1011.9 |
| 20260510030017 | 15 | 134 | 0.0 | 0.0 | 0.00 | 0.30 | 0.30 | 86 | 1011.9 |
| 20260510024544 | 16 | 134 | 0.0 | 0.0 | 0.00 | 0.30 | 0.30 | 85 | 1011.8 |
| 20260510023008 | 16 | 134 | 0.0 | 0.0 | 0.00 | 0.30 | 0.30 | 85 | 1011.7 |
| 20260510021540 | 16 | 134 | 0.0 | 0.0 | 0.00 | 0.30 | 0.30 | 84 | 1011.8 |
| 20260510020010 | 16 | 134 | 0.0 | 0.0 | 0.00 | 0.30 | 0.30 | 84 | 1011.5 |
| 20260510014537 | 16 | 134 | 0.0 | 0.0 | 0.00 | 0.30 | 0.30 | 83 | 1011.4 |
| 20260510013006 | 16 | 134 | 0.0 | 0.0 | 0.00 | 0.30 | 0.30 | 82 | 1011.3 |
| 20260510011535 | 17 | 134 | 0.0 | 0.0 | 0.00 | 0.30 | 0.30 | 80 | 1011.0 |
| 20260510010105 | 17 | 134 | 0.0 | 0.0 | 0.00 | 0.30 | 0.30 | 79 | 1010.9 |
| 20260510004528 | 17 | 134 | 0.0 | 0.0 | 0.00 | 0.30 | 0.30 | 78 | 1010.7 |
| 20260510003100 | 18 | 134 | 0.0 | 0.0 | 0.00 | 0.30 | 0.30 | 77 | 1010.6 |
| 20260510001528 | 18 | 135 | 0.0 | 0.0 | 0.00 | 0.30 | 0.30 | 76 | 1010.5 |
| 20260510000053 | 19 | 132 | 0.0 | 0.0 | 0.00 | 0.30 | 0.30 | 74 | 1010.4 |
| 20260509234517 | 20 | 102 | 0.0 | 0.0 | 0.00 | 0.30 | 0.30 | 73 | 1010.3 |
| 20260509233048 | 20 | 102 | 0.0 | 0.0 | 0.00 | 0.30 | 0.30 | 71 | 1010.4 |
| 20260509231517 | 21 | 108 | 0.0 | 1.6 | 0.00 | 0.30 | 0.30 | 70 | 1010.1 |
| 20260509230045 | 21 | 115 | 0.0 | 3.2 | 0.00 | 0.30 | 0.30 | 68 | 1010.0 |
| 20260509224512 | 23 | 44 | 0.0 | 6.4 | 0.00 | 0.30 | 0.30 | 61 | 1010.0 |
| 20260509223054 | 23 | 110 | 3.2 | 6.4 | 0.00 | 0.30 | 0.30 | 56 | 1010.0 |
| 20260509221508 | 23 | 122 | 0.0 | 3.2 | 0.00 | 0.30 | 0.30 | 60 | 1010.0 |
| 20260509220053 | 22 | 142 | 0.0 | 6.4 | 0.00 | 0.30 | 0.30 | 60 | 1010.0 |
| 20260509214504 | 22 | 116 | 0.0 | 3.2 | 0.00 | 0.30 | 0.30 | 60 | 1009.9 |
| 20260509213034 | 23 | 283 | 0.0 | 4.8 | 0.00 | 0.30 | 0.30 | 60 | 1010.0 |
| 20260509211606 | 22 | 94 | 0.0 | 4.8 | 0.00 | 0.30 | 0.30 | 61 | 1010.0 |
| 20260509210033 | 22 | 295 | 1.6 | 6.4 | 0.00 | 0.30 | 0.30 | 61 | 1009.9 |
| 20260509204605 | 23 | 243 | 1.6 | 8.0 | 0.00 | 0.30 | 0.30 | 59 | 1009.8 |
| 20260509203027 | 23 | 282 | 0.0 | 6.4 | 0.00 | 0.30 | 0.30 | 62 | 1009.6 |
| 20260509201555 | 22 | 265 | 0.0 | 6.4 | 0.00 | 0.30 | 0.30 | 66 | 1009.8 |
| 20260509200018 | 22 | 214 | 1.6 | 4.8 | 0.00 | 0.30 | 0.30 | 67 | 1010.2 |
| 20260509194544 | 20 | 139 | 0.0 | 6.4 | 0.00 | 0.30 | 0.30 | 77 | 1010.4 |
| 20260509193002 | 18 | 108 | 0.0 | 4.8 | 0.00 | 0.30 | 0.30 | 83 | 1010.8 |
| 20260509191532 | 18 | 83 | 0.0 | 0.0 | 0.28 | 0.30 | 0.30 | 87 | 1011.0 |
| 20260509190107 | 17 | 8 | 0.0 | 0.0 | 0.30 | 0.30 | 0.30 | 93 | 1010.8 |
| 20260509184533 | 16 | 259 | 0.0 | 3.2 | 0.30 | 0.30 | 0.30 | 93 | 1011.0 |
| 20260509183054 | 16 | 209 | 0.0 | 1.6 | 0.30 | 0.30 | 0.30 | 88 | 1011.4 |
| 20260509181516 | 18 | 231 | 0.0 | 3.2 | 0.03 | 0.03 | 0.03 | 71 | 1011.7 |
| 20260509180043 | 20 | 276 | 0.0 | 4.8 | 0.00 | 0.00 | 0.00 | 64 | 1011.7 |
| 20260509174508 | 20 | 15 | 0.0 | 8.0 | 0.00 | 0.00 | 0.00 | 63 | 1011.9 |
| 20260509173044 | 20 | 216 | 0.0 | 6.4 | 0.00 | 0.00 | 0.00 | 63 | 1011.9 |
| 20260509171508 | 20 | 249 | 6.4 | 19.3 | 0.00 | 0.00 | 0.00 | 62 | 1012.1 |
| 20260509170034 | 20 | 195 | 0.0 | 12.9 | 0.00 | 0.00 | 0.00 | 63 | 1012.2 |
| 20260509164600 | 20 | 252 | 0.0 | 11.3 | 0.00 | 0.00 | 0.00 | 62 | 1012.2 |
| 20260509163029 | 20 | 229 | 0.0 | 4.8 | 0.00 | 0.00 | 0.00 | 63 | 1012.2 |
| 20260509161554 | 20 | 131 | 0.0 | 9.7 | 0.00 | 0.00 | 0.00 | 62 | 1012.3 |
| 20260509160022 | 20 | 143 | 4.8 | 11.3 | 0.00 | 0.00 | 0.00 | 62 | 1012.3 |
| 20260509154557 | 20 | 194 | 0.0 | 8.0 | 0.00 | 0.00 | 0.00 | 63 | 1012.6 |
| 20260509153012 | 19 | 255 | 1.6 | 8.0 | 0.00 | 0.00 | 0.00 | 63 | 1012.7 |
| 20260509151536 | 18 | 131 | 1.6 | 6.4 | 0.00 | 0.00 | 0.00 | 65 | 1012.9 |
| 20260509144524 | 17 | 103 | 0.0 | 4.8 | 0.00 | 0.00 | 0.00 | 69 | 1013.2 |
| 20260509143053 | 16 | 262 | 0.0 | 3.2 | 0.00 | 0.00 | 0.00 | 70 | 1013.5 |
| 20260509141516 | 16 | 240 | 0.0 | 8.0 | 0.00 | 0.00 | 0.00 | 71 | 1013.4 |
| 20260509140058 | 16 | 182 | 0.0 | 4.8 | 0.00 | 0.00 | 0.00 | 70 | 1013.3 |
| 20260509134509 | 16 | 12 | 1.6 | 6.4 | 0.00 | 0.00 | 0.00 | 71 | 1013.4 |
| 20260509133040 | 15 | 75 | 0.0 | 4.8 | 0.00 | 0.00 | 0.00 | 71 | 1013.4 |
| 20260509131526 | 15 | 184 | 0.0 | 6.4 | 0.00 | 0.00 | 0.00 | 70 | 1013.4 |
| 20260509130043 | 16 | 165 | 0.0 | 6.4 | 0.00 | 0.00 | 0.00 | 70 | 1013.4 |
| 20260509124501 | 15 | 127 | 1.6 | 6.4 | 0.00 | 0.00 | 0.00 | 69 | 1013.1 |
| 20260509123028 | 15 | 226 | 3.2 | 6.4 | 0.00 | 0.00 | 0.00 | 67 | 1013.0 |
| 20260509121607 | 15 | 160 | 1.6 | 8.0 | 0.00 | 0.00 | 0.00 | 67 | 1013.1 |
| 20260509120022 | 15 | 132 | 0.0 | 8.0 | 0.00 | 0.00 | 0.00 | 66 | 1013.1 |
| 20260509114545 | 15 | 164 | 0.0 | 4.8 | 0.00 | 0.00 | 0.00 | 66 | 1013.2 |
| 20260509113014 | 15 | 56 | 0.0 | 1.6 | 0.00 | 0.00 | 0.00 | 66 | 1012.9 |
| 20260509111548 | 14 | 130 | 0.0 | 3.2 | 0.00 | 0.00 | 0.00 | 67 | 1012.9 |
| 20260509110014 | 14 | 110 | 0.0 | 1.6 | 0.00 | 0.00 | 0.00 | 65 | 1012.9 |
| 20260509104544 | 14 | 217 | 0.0 | 0.0 | 0.00 | 0.00 | 0.00 | 64 | 1012.8 |
| 20260509103009 | 14 | 233 | 0.0 | 1.6 | 0.00 | 0.00 | 0.00 | 65 | 1012.6 |
| 20260509101538 | 14 | 254 | 0.0 | 0.0 | 0.00 | 0.00 | 0.00 | 65 | 1012.7 |
| 20260509100007 | 14 | 254 | 0.0 | 0.0 | 0.00 | 0.00 | 0.00 | 64 | 1012.5 |
| 20260509094533 | 14 | 254 | 0.0 | 0.0 | 0.00 | 0.00 | 0.00 | 64 | 1012.5 |
| 20260509093001 | 14 | 254 | 0.0 | 1.6 | 0.00 | 0.00 | 0.00 | 64 | 1012.7 |
| 20260509091528 | 14 | 254 | 0.0 | 0.0 | 0.00 | 0.00 | 0.00 | 63 | 1012.8 |
| 20260509090108 | 15 | 253 | 0.0 | 3.2 | 0.00 | 0.00 | 0.00 | 62 | 1012.9 |
| 20260509084525 | 15 | 209 | 0.0 | 3.2 | 0.00 | 0.00 | 0.00 | 62 | 1013.0 |